[[{"header":{"parameterUnit":"m.s-1","parameterCategory":1,"la1":30.2991,"la2":30.254,"lo1":-89.0895,"lo2":-89.0444,"dy":0.0017,"dx":0.0017,"nx":28,"ny":28,"refTime":"2024-02-01T09:00:00:Z","depth":0,"parameterNumber":2,"parameterNumberName":"U-component_of_WINDS"},"data":[0,0,0,0,0,0,0,0,0,0,0,0,0,0,0,0,0,0,0,0,0,0,0,0,0,0,0,0,0,0,0,0,0,0,0,0,0,0,0,0,0,0,0,0,0,0,0,0,0,0,0,0,0,0,0,0,0,0,0.2629,0.2629,0,0.2637,0.2637,0.2637,0.2621,0.262,0.262,0.2619,0.2627,0.2628,0.2629,0,0,0,0,0,0,0,0,0,0,0,0,0,0.2599,0.26,0.2629,0.2629,0.2629,0.2637,0.2637,0.2637,0.2621,0.262,0.262,0.2619,0.2627,0.2628,0.2629,0,0,0,0,0,0,0,0,0,0,0,0,0,0.261,0.26,0.2629,0.2622,0.2622,0.2637,0.2637,0.2637,0.2621,0.262,0.262,0.2619,0.2627,0.2628,0.2629,0.2651,0,0,0.2632,0.2632,0,0,0,0,0,0,0,0,0.261,0.2611,0.2623,0.2623,0.2622,0.2627,0.2629,0.2642,0.2621,0.2621,0.2619,0.2618,0.2628,0.2629,0.2632,0.2651,0.2652,0.2632,0.2633,0.2633,0.2633,0,0,0,0,0,0,0,0.2609,0.2611,0.2632,0.2623,0.2623,0.2618,0.2619,0.2632,0.2629,0.2621,0.262,0.2621,0.2627,0.2631,0.2632,0.2652,0.2632,0.2633,0.2634,0.2634,0.2689,0.269,0,0,0,0,0,0,0.2609,0.261,0.2632,0.2632,0.2614,0.262,0.262,0.2626,0.2629,0.2628,0.2622,0.262,0.263,0.2631,0.2632,0.2658,0.2633,0.2634,0.2635,0.2688,0.2689,0.269,0,0,0,0,0,0,0.2608,0.2611,0.2631,0.2621,0.2623,0.2621,0.2628,0.2627,0.263,0.2629,0.2629,0.2626,0.2629,0.2631,0.2646,0.2658,0.2635,0.2636,0.2687,0.2689,0.269,0.271,0,0,0,0,0,0,0.2608,0.2611,0.262,0.2621,0.2624,0.2646,0.2628,0.2628,0.2632,0.263,0.2633,0.2633,0.2629,0.2645,0.2647,0.2659,0.2636,0.2686,0.2688,0.2689,0.2708,0.2712,0.2715,0,0,0,0,0,0.2607,0.2625,0.262,0.2623,0.2635,0.2646,0.2648,0.2643,0.2633,0.2642,0.2641,0.2633,0.2656,0.2647,0.2649,0.2662,0.2686,0.2688,0.2689,0.2707,0.2711,0.2715,0,0,0,0,0,0,0.2625,0.2625,0.262,0.2639,0.2643,0.2644,0.2654,0.2648,0.2654,0.2652,0.2645,0.2646,0.2663,0.2664,0.2653,0.2683,0.2669,0.2672,0.2682,0.2686,0.2689,0.2689,0.2637,0,0,0,0,0,0.2631,0.2641,0.2641,0.2658,0.266,0.2657,0.2662,0.2657,0.2661,0.2662,0.2663,0.2666,0.2675,0.268,0.2688,0.2708,0.2708,0.2718,0.2721,0.2724,0.2726,0.2737,0.2741,0.2697,0.2696,0.2696,0,0,0.2644,0.2646,0.2652,0.2661,0.2664,0.2674,0.2658,0.267,0.2677,0.2664,0.2679,0.2679,0.2683,0.2701,0.2709,0.2702,0.2739,0.2726,0.2729,0.2729,0.2739,0.2743,0.2747,0.2698,0.2698,0.2697,0,0,0.2673,0.2675,0.269,0.2692,0.2696,0.2694,0.2697,0.2699,0.2699,0.2713,0.2704,0.2712,0.2727,0.273,0.2733,0.2762,0.2755,0.2765,0.2782,0.2792,0.2796,0.2799,0.2809,0.2813,0.2767,0.2767,0.2767,0,0.2689,0.2704,0.2698,0.271,0.2714,0.2703,0.2717,0.272,0.2726,0.2729,0.2721,0.2739,0.2741,0.2759,0.2766,0.2769,0.2773,0.2765,0.2796,0.2799,0.2802,0.2811,0.2815,0.2768,0.2768,0.2768,0.2768,0,0.2723,0.2734,0.2745,0.2751,0.2756,0.2769,0.2765,0.2771,0.2766,0.2765,0.2779,0.2781,0.2788,0.2792,0.2788,0.281,0.2806,0.2797,0.2783,0.2807,0.2816,0.282,0.277,0.277,0.2769,0.2769,0,0,0.2765,0.2767,0.2771,0.2773,0.2776,0.2784,0.2796,0.2803,0.2809,0.2813,0.2823,0.2835,0.2827,0.2831,0.2826,0.2835,0.2858,0.2826,0.2826,0.2832,0.2883,0.2889,0.2894,0.2853,0.2854,0.2854,0.2882,0,0.2793,0.2814,0.2809,0.283,0.2839,0.2829,0.2839,0.2842,0.2841,0.2848,0.2847,0.2856,0.2844,0.2846,0.2855,0.2854,0.2869,0.2852,0.2862,0.2863,0.2862,0.2898,0.2905,0.2932,0.2886,0.2886,0.2887,0,0.283,0.2835,0.2857,0.2858,0.2862,0.2871,0.2877,0.2885,0.2888,0.2886,0.289,0.2883,0.2895,0.2881,0.2897,0.2886,0.289,0.289,0.2891,0.2892,0.2876,0.29,0.294,0.2944,0.2892,0.2892,0.2892,0,0.2857,0.287,0.2885,0.2887,0.2889,0.2896,0.2897,0.2899,0.2903,0.2908,0.2911,0.2918,0.2921,0.2926,0.2922,0.2912,0.2938,0.2924,0.2937,0.2937,0.2943,0.2943,0.2984,0.2946,0.2946,0.2946,0.2946,0,0.289,0.2904,0.2897,0.2906,0.2921,0.2915,0.293,0.293,0.2931,0.294,0.2931,0.2939,0.2932,0.294,0.2936,0.295,0.2952,0.2951,0.295,0.2952,0.2952,0.2954,0.2952,0.2947,0.2947,0.2946,0.2946,0,0.2924,0.292,0.2935,0.2935,0.2935,0.2946,0.2946,0.2955,0.2952,0.2963,0.2966,0.2962,0.2971,0.2966,0.2975,0.2973,0.299,0.2987,0.2989,0.2989,0.3002,0.3001,0.3046,0.3052,0.301,0.301,0.3011,0,0.2945,0.2955,0.2956,0.2961,0.2963,0.2971,0.2975,0.2969,0.2974,0.2978,0.2986,0.2993,0.2999,0.3013,0.3011,0.3018,0.3014,0.3029,0.3015,0.3017,0.3014,0.3014,0.3015,0.3032,0.3033,0.3033,0.3034,0,0.2983,0.298,0.2987,0.2993,0.2998,0.3003,0.3007,0.3011,0.3005,0.3011,0.302,0.3024,0.3033,0.304,0.3046,0.3047,0.3039,0.3038,0.3042,0.3044,0.3045,0.3044,0.2997,0.3037,0.3037,0.3037,0.3036,0.3036,0.3011,0.3019,0.3021,0.3029,0.3031,0.3034,0.3042,0.304,0.3047,0.3054,0.305,0.306,0.3062,0.3068,0.307,0.3077,0.3071,0.3076,0.3077,0.3079,0.308,0.3044,0.3078,0.3078,0.3078,0.3078,0.3078,0,0.3048,0.3048,0.3056,0.3061,0.3067,0.3059,0.3063,0.3068,0.3077,0.3079,0.3085,0.3094,0.3101,0.31,0.3107,0.3113,0.3109,0.3115,0.3114,0.3114,0.3086,0.3082,0.3117,0.3117,0.3117,0.3117,0.3117,0.3117,0.3068,0.3082,0.3079,0.3094,0.3094,0.3104,0.3106,0.311,0.3111,0.3122,0.3128,0.3127,0.3128,0.3134,0.314,0.314,0.3142,0.3149,0.3147,0.312,0.3116,0.3113,0.3109,0.315,0.315,0.3175,0.3175,0.3176]},{"header":{"parameterUnit":"m.s-1","parameterCategory":1,"la1":30.2991,"la2":30.254,"lo1":-89.0895,"lo2":-89.0444,"dy":0.0017,"dx":0.0017,"nx":28,"ny":28,"refTime":"2024-02-01T09:00:00:Z","depth":0,"parameterNumber":3,"parameterNumberName":"V-component_of_WINDS"},"data":[0,0,0,0,0,0,0,0,0,0,0,0,0,0,0,0,0,0,0,0,0,0,0,0,0,0,0,0,0,0,0,0,0,0,0,0,0,0,0,0,0,0,0,0,0,0,0,0,0,0,0,0,0,0,0,0,0,0,0.2883,0.2883,0,0.2899,0.29,0.29,0.2868,0.2867,0.2866,0.2865,0.2886,0.2887,0.2889,0,0,0,0,0,0,0,0,0,0,0,0,0,0.2827,0.2828,0.2883,0.2883,0.2883,0.2899,0.29,0.29,0.2868,0.2867,0.2866,0.2864,0.2885,0.2887,0.2889,0,0,0,0,0,0,0,0,0,0,0,0,0,0.2848,0.2828,0.2883,0.2869,0.2868,0.2899,0.29,0.29,0.2868,0.2867,0.2865,0.2864,0.2884,0.2887,0.2889,0.2935,0,0,0.2896,0.2897,0,0,0,0,0,0,0,0,0.2847,0.285,0.2871,0.287,0.2869,0.288,0.2887,0.2912,0.2869,0.2869,0.2865,0.2863,0.2885,0.2887,0.2894,0.2936,0.2937,0.2896,0.2898,0.2899,0.2899,0,0,0,0,0,0,0,0.2845,0.2849,0.289,0.2871,0.287,0.2863,0.2865,0.2892,0.2886,0.2868,0.2866,0.2868,0.2884,0.2892,0.2894,0.2937,0.2896,0.2898,0.29,0.2901,0.3018,0.3019,0,0,0,0,0,0,0.2845,0.2848,0.2889,0.289,0.2854,0.2866,0.2867,0.2878,0.2885,0.2885,0.287,0.2867,0.2889,0.2892,0.2895,0.295,0.2899,0.2901,0.2902,0.3016,0.3018,0.302,0,0,0,0,0,0,0.2844,0.2849,0.2888,0.2868,0.2873,0.2868,0.2881,0.2879,0.2887,0.2886,0.2885,0.2878,0.2888,0.2892,0.2925,0.295,0.2902,0.2904,0.3014,0.3017,0.3019,0.3059,0,0,0,0,0,0,0.2843,0.2849,0.2866,0.2869,0.2874,0.2918,0.2883,0.2881,0.289,0.2887,0.2894,0.2894,0.2887,0.2922,0.2927,0.2952,0.2906,0.3012,0.3015,0.3018,0.3056,0.3063,0.3069,0,0,0,0,0,0.2841,0.2878,0.2867,0.2872,0.2895,0.2919,0.2922,0.2912,0.2893,0.291,0.2909,0.2894,0.2946,0.2926,0.2932,0.2958,0.301,0.3014,0.3018,0.3053,0.3062,0.3069,0,0,0,0,0,0,0.2879,0.2878,0.2866,0.2905,0.2912,0.2914,0.2936,0.2922,0.2936,0.2932,0.292,0.2922,0.2958,0.2961,0.2938,0.3002,0.2975,0.298,0.2999,0.3008,0.3014,0.3014,0.2908,0,0,0,0,0,0.2892,0.291,0.2909,0.2943,0.2947,0.2941,0.2951,0.2942,0.295,0.2953,0.2955,0.2964,0.2982,0.2995,0.3012,0.3055,0.3057,0.3076,0.3083,0.3088,0.3094,0.3117,0.3126,0.3033,0.3033,0.3033,0,0,0.2919,0.2921,0.2933,0.2951,0.2955,0.2976,0.2944,0.2967,0.2982,0.2957,0.2989,0.299,0.2999,0.3038,0.3055,0.3042,0.3119,0.3093,0.3098,0.31,0.3122,0.3131,0.3138,0.3035,0.3035,0.3035,0,0,0.2979,0.2982,0.3011,0.3015,0.3022,0.3017,0.3024,0.3027,0.3027,0.3058,0.3039,0.3058,0.309,0.3097,0.3105,0.3165,0.3152,0.3171,0.3207,0.323,0.3237,0.3243,0.3266,0.3274,0.3176,0.3176,0.3176,0,0.3013,0.3042,0.3028,0.3052,0.306,0.3036,0.3066,0.3071,0.3084,0.3091,0.3075,0.3114,0.3118,0.3158,0.3173,0.318,0.3188,0.3171,0.3237,0.3243,0.3249,0.327,0.3279,0.3179,0.3178,0.3178,0.3178,0,0.3083,0.3103,0.3126,0.3137,0.3147,0.3174,0.3165,0.3177,0.3167,0.3164,0.3196,0.32,0.3217,0.3226,0.3217,0.3265,0.3256,0.3238,0.3211,0.326,0.328,0.3288,0.3182,0.3181,0.318,0.318,0,0,0.317,0.3171,0.318,0.3184,0.3189,0.3205,0.323,0.3246,0.3257,0.3266,0.3288,0.3314,0.3298,0.3307,0.3298,0.3318,0.3366,0.3298,0.3298,0.3311,0.3419,0.3434,0.3443,0.3356,0.3358,0.3359,0.3419,0,0.323,0.3273,0.326,0.3304,0.3323,0.3299,0.3321,0.3327,0.3325,0.3341,0.3338,0.3358,0.3334,0.3339,0.3357,0.3357,0.3388,0.3352,0.3378,0.3379,0.3377,0.3453,0.3469,0.3525,0.3427,0.3428,0.3429,0,0.3307,0.3317,0.3362,0.3362,0.337,0.339,0.3403,0.3418,0.3424,0.3421,0.343,0.3416,0.3442,0.3413,0.3449,0.3424,0.3434,0.3435,0.3437,0.344,0.3408,0.346,0.3543,0.3552,0.3441,0.344,0.3439,0,0.3367,0.3392,0.3422,0.3426,0.3428,0.3442,0.3444,0.3448,0.3458,0.3469,0.3475,0.3489,0.3498,0.3509,0.3501,0.348,0.3538,0.3508,0.3537,0.3537,0.3552,0.3551,0.3639,0.3556,0.3555,0.3555,0.3555,0,0.3436,0.3465,0.3449,0.3467,0.3499,0.3484,0.3516,0.3514,0.3518,0.3537,0.3517,0.3535,0.3522,0.3539,0.3532,0.3563,0.3567,0.3566,0.3564,0.3568,0.3569,0.3576,0.3572,0.3558,0.3557,0.3557,0.3556,0,0.351,0.35,0.3531,0.3529,0.3529,0.3552,0.3551,0.3569,0.3563,0.3587,0.3592,0.3585,0.3604,0.3595,0.3616,0.3611,0.3651,0.3643,0.3649,0.3648,0.3677,0.3675,0.3774,0.3786,0.3694,0.3695,0.3695,0,0.3556,0.3577,0.3576,0.3587,0.3589,0.3606,0.3615,0.3601,0.3611,0.3619,0.3636,0.3652,0.3665,0.3697,0.3694,0.3709,0.3703,0.3736,0.3705,0.3708,0.3704,0.3704,0.3706,0.3743,0.3744,0.3745,0.3745,0,0.3638,0.3632,0.3645,0.3656,0.3667,0.3676,0.3683,0.3693,0.3679,0.3692,0.371,0.372,0.3739,0.3757,0.377,0.3772,0.3757,0.3755,0.3762,0.3768,0.3771,0.3771,0.3667,0.3753,0.3752,0.3752,0.3751,0.3751,0.37,0.3718,0.372,0.3735,0.3738,0.3745,0.3761,0.3757,0.3772,0.3786,0.3776,0.3798,0.3803,0.3818,0.3823,0.384,0.3827,0.3838,0.3841,0.3844,0.3848,0.3766,0.3842,0.3842,0.3841,0.3841,0.3841,0,0.3783,0.3782,0.3796,0.3806,0.3818,0.38,0.3807,0.3818,0.3837,0.3842,0.3854,0.3875,0.3891,0.3889,0.3903,0.3918,0.3911,0.3922,0.3922,0.3923,0.3859,0.3851,0.3927,0.3927,0.3927,0.3927,0.3927,0.3927,0.3827,0.3856,0.3849,0.388,0.3879,0.3899,0.3904,0.3911,0.3914,0.3938,0.3951,0.3948,0.395,0.3965,0.3979,0.3978,0.3985,0.3999,0.3995,0.3936,0.3927,0.3919,0.3912,0.4,0.4,0.4058,0.4058,0.4059]}]]